Tracking 18942 objects as of 18-Jan-2018
HD Live streaming from Space Station
objects crossing your sky now

COSMOS 2378

Track COSMOS 2378 now!
10-day predictions
COSMOS 2378 is classified as:


NORAD ID: 26818
Int'l Code: 2001-023A
Perigee: 968.7 km
Apogee: 1,016.6 km
Inclination: 82.9 °
Period: 104.8 minutes
Semi major axis: 7363 km
RCS: 1.9621 m2 (large)
Launch date: June 8, 2001
Source: Commonwealth of Independent States (former USSR) (CIS)
Launch site: PLESETSK MISSILE AND SPACE COMPLEX (PKMTR)

Normally part of a six-satellite constellation.
aabbcc
Your satellite tracking list
Your tracking list is empty




NASA's NSSDC Master Catalog

Two Line Element Set (TLE):
1 26818U 01023A   18018.23665421  .00000029  00000-0  15600-4 0  9995
2 26818  82.9293 338.0312 0032493 322.8877  37.0028 13.73922425833066
Source of the keplerian elements: AFSPC